OBJECT A

基本信息
目录编号:
58849
目录名称:
OBJECT A
国际标识:
2024-018A
轨道中心:
EARTH
物体状态:
在轨
发射日期:
2024-01-28 UTC
国别:
伊朗 (IR)
轨道信息
数据来源: 国际轨道数据
星历时间: 2026-09-11T06:33:05+0800
半长轴: 7137.186km
偏心率: 0.0426702
轨道倾角: 58.688°
近地点辐角: 206.183°
升交点赤经: 289.249°
平近点角: 151.705°
近地点: 454.503km
远地点: 1063.595km
周期: 100.012分钟
每日圈数: 14.398334
详细信息
发射场:
SEM
轨道高度:
LEO
数据来源:
AOE Working Group
参考系:
TEME
时间系统:
UTC
历元类型:
SGP4
2D轨道图
3D轨道图
轨道高度分析图
轨道倾角分析图
轨道综合分析图
查看轨道综合分析图